Location: Bukovany
(49.8234°N, 14.6297°E)
Time: 16:29:15
(UTC+00:00)

Cosmos 2251 Rocket - Pass Details

Date: 17 November 2025
Orbit: 760 x 788 km, 74.0° (Epoch: 09 December)

Event Time Altitude Azimuth Distance (km) Brightness Sun altitude
Rises 16:20:52 0° 171° (S) 3,231 6.9 -10.5°
Reaches altitude 10° 16:23:27 10° 161° (SSE) 2,314 6.0 -10.9°
Maximum altitude 16:28:00 31° 101° (E) 1,348 4.3 -11.6°
Enters shadow 16:32:10 12° 43° (NE) 2,194 5.4 -12.3°
